Flag for U.S.A. Weather past 2 weeks in Anchorage, Alaska, U.S.A.

Now
35 °F

Overcast.


Feels Like: 29 °F
Forecast: 33 / 43 °F
Wind: 8 mph from Southwest

Location: Lake Hood Seaplane

Current Time: Mar 31, 2015 at 10:25:36 AM

Latest Report: Mar 31, 2015 at 9:53 AM


Visibility: 10 mi

Pressure: 29.59 "Hg

Humidity: 78%

Dew point: 29 °F

Location of AnchorageLocation

Historic Weather in Anchorage — Graph

°F

Anchorage temperature yesterday

Maximum temperature yesterday: 49 °F (at 4:53 PM)
Minimum temperature yesterday: 33 °F (at 6:53 AM)
Average temperature yesterday: 39 °F

Past Weeks' High & Low Weather Summary

 TemperatureHumidityPressure
High49 °F (Mar 30, 4:53 PM)100% (Mar 18, 1:53 AM)30.02 "Hg (Mar 18, 1:53 AM)
Low1 °F (Mar 18, 1:53 AM)31% (Mar 24, 5:53 PM)29.32 "Hg (Mar 26, 7:53 AM)
Average36 °F63%29.69 "Hg
* Reported Mar 16 8:53 AM — Mar 31 8:53 AM, Anchorage, Weather by CustomWeather, © 2015

Note: Actual official high and low records may vary slightly from our data, if they occured in-between our weather recording intervals... More about our weather records

Advertising

Anchorage weather history for previous 24 hours

 ConditionsComfort  
Time TempWeatherWind HumidityBarometerVisibility
8:53 AM
Tue, Mar 31
33 °FMostly cloudy.No wind85%29.58 "Hg10 mi
7:53 AM32 °FOvercast.No wind85%29.57 "Hg10 mi
6:53 AM31 °FClear.No wind85%29.57 "Hg10 mi
5:53 AM31 °FClear.3 mph85%29.57 "Hg10 mi
4:53 AM32 °FClear.No wind82%29.57 "Hg10 mi
3:53 AM30 °FClear.No wind85%29.56 "Hg10 mi
2:53 AM34 °FClear.3 mph79%29.56 "Hg10 mi
1:53 AM34 °FClear.5 mph76%29.56 "Hg10 mi
12:53 AM33 °FClear.No wind78%29.56 "Hg10 mi
11:53 PM
Mon, Mar 30
34 °FClear.No wind76%29.56 "Hg10 mi
10:53 PM35 °FClear.No wind72%29.57 "Hg10 mi
9:53 PM36 °FPassing clouds.No wind73%29.57 "Hg10 mi
8:53 PM42 °FMostly cloudy.No wind57%29.57 "Hg10 mi
7:53 PM44 °FOvercast.3 mph53%29.57 "Hg10 mi
6:53 PM45 °FScattered clouds.6 mph53%29.57 "Hg10 mi
5:53 PM49 °FCloudy.7 mph46%29.58 "Hg10 mi
4:53 PM49 °FPassing clouds.3 mph44%29.59 "Hg10 mi
3:53 PM47 °FScattered clouds.No wind48%29.60 "Hg10 mi
2:53 PM47 °FSunny.3 mph52%29.62 "Hg10 mi
1:53 PM44 °FMore clouds than sun.No wind63%29.63 "Hg10 mi
12:53 PM40 °FLight rain. Mostly cloudy.5 mph70%29.63 "Hg10 mi
11:53 AM39 °FMostly cloudy.3 mph73%29.63 "Hg10 mi
10:53 AM39 °FOvercast.No wind73%29.62 "Hg10 mi
Weather by CustomWeather, © 2015

See weather overviewHow to use our weather pages